Temp
15 16 17 17 18 18 18 19 19 19 20 21 21 21 21 22 24 24 28 31 31 30 30 30 31 33 34 35 36 35 24 26 28 26 23 28 32 34 34 33 33 33 31 29 27
17 18 18 18 19 19 19 20 20 20 21 21 21 21 21 21 21 27 31 30 30 30 30 32 34 35 36 33 28 31 28 29 29 25 23 26 29 34 33 32 32 31 31 29 27
17 18 18 19 19 20 20 20 20 21 21 21 21 22 21 21 26 33 30 30 30 30 30 33 35 36 35 31 25 33 30 29 27 27 26 27 30 34 33 32 32 30 30 31 28
17 18 18 19 20 20 20 21 21 21 21 21 21 21 21 19 31 30 29 30 30 29 31 34 35 35 35 30 27 30 31 29 28 25 23 22 27 33 33 33 34 32 32 32 31
17 17 19 20 20 21 21 21 22 22 22 21 21 21 20 27 31 29 29 30 29 29 32 35 35 36 35 31 29 27 30 30 27 26 24 23 27 29 33 34 33 33 32 32 32
17 17 18 19 21 21 22 22 23 22 22 22 22 20 21 29 32 29 30 29 31 32 34 35 36 37 35 31 31 31 31 30 28 27 27 27 24 27 33 33 33 32 32 32 32
17 18 18 19 21 22 22 23 23 23 22 22 21 19 27 32 33 32 32 32 32 34 35 36 36 36 31 30 35 33 31 30 29 29 28 28 25 24 28 33 33 33 33 32 32
18 18 19 19 21 22 23 23 23 23 23 22 21 20 29 33 33 33 33 33 33 34 35 36 36 36 34 29 31 33 30 29 30 29 28 29 24 25 25 27 33 33 33 32 32
18 18 19 20 21 23 23 23 23 23 23 22 20 24 32 32 33 33 34 34 34 34 35 35 35 35 36 31 25 25 25 28 30 31 29 30 26 25 26 27 31 32 33 32 32
18 19 19 20 21 23 23 22 22 23 23 20 24 28 32 34 34 34 34 34 35 35 35 35 35 34 32 24 23 21 24 27 28 31 30 30 28 27 27 30 31 32 32 31 32
18 19 19 20 21 23 23 20 25 27 27 32 33 33 36 36 34 34 34 34 35 35 33 35 34 34 28 27 26 25 27 28 30 31 30 29 29 28 29 31 31 32 31 32 32
18 19 20 21 21 23 22 29 34 33 32 33 35 36 36 35 34 35 34 34 34 33 35 35 34 32 29 26 29 30 28 32 35 34 30 26 30 29 30 30 32 32 31 30 29
18 19 20 22 23 23 26 31 32 33 33 35 36 35 35 36 35 35 35 35 34 34 35 35 37 37 31 27 30 32 32 33 35 35 34 26 26 22 24 29 32 31 32 27 30
18 19 20 22 21 29 31 31 32 33 31 35 35 36 36 36 35 37 36 36 36 34 35 36 37 37 36 35 36 35 37 36 36 34 30 28 26 22 25 26 32 32 32 29 27
18 18 19 19 20 29 33 32 32 33 30 35 36 37 37 36 36 36 36 36 35 35 36 35 36 36 35 36 37 36 37 36 36 35 29 30 29 28 23 25 28 33 32 32 34
17 19 19 20 20 27 30 32 32 31 32 36 36 35 35 36 36 36 36 36 37 36 36 36 38 37 37 37 37 37 36 36 37 36 34 34 25 30 27 25 22 34 35 34 34
18 20 18 17 28 30 31 32 30 31 37 36 36 36 36 36 36 35 34 34 34 33 34 35 36 37 37 36 37 36 35 34 34 34 34 36 35 31 33 32 31 34 35 35 35
19 22 22 23 27 28 30 31 29 35 36 39 37 37 35 37 36 35 34 34 36 36 36 35 34 36 37 36 36 36 36 34 31 30 30 30 32 33 36 36 36 36 36 36 34
19 24 26 27 25 28 30 30 31 34 38 38 38 36 36 37 37 36 35 35 36 37 35 36 36 37 38 37 37 36 35 38 36 37 36 36 36 37 37 36 36 36 35 35 35
14 23 30 29 29 29 29 28 34 36 37 37 35 36 36 37 36 36 36 37 37 38 38 37 35 37 37 37 37 36 37 35 36 34 33 35 35 34 35 35 36 35 36 35 34
17 27 29 29 29 29 29 31 33 36 36 35 35 35 36 37 37 36 36 38 38 38 38 37 37 36 37 35 35 36 35 36 36 36 34 34 33 36 35 36 35 36 36 35 35
23 28 29 30 29 30 30 32 29 35 37 35 35 35 35 36 37 37 37 38 39 38 36 37 37 35 36 38 38 38 36 37 35 34 35 34 31 36 36 36 36 36 35 36 35
22 28 30 30 29 31 33 33 34 35 35 34 34 35 36 35 35 37 37 39 38 37 36 37 35 34 35 36 36 35 36 36 37 37 34 33 33 35 35 34 35 35 34 34 33
22 29 31 31 31 31 31 33 33 35 34 34 35 35 35 35 36 35 37 38 38 37 32 36 35 35 34 33 31 33 35 36 36 34 35 34 33 33 34 33 33 32 33 33 33
23 29 30 28 31 31 32 32 32 32 34 34 33 34 34 33 34 35 36 37 38 30 36 36 34 34 35 36 36 35 35 35 35 35 33 34 34 34 35 33 33 33 33 33 32
24 25 26 26 28 29 28 29 30 31 33 33 32 33 34 33 34 34 35 34 36 35 35 36 33 34 33 35 36 35 35 35 35 35 35 35 34 36 36 34 33 33 32 32 32
23 24 25 24 27 29 30 30 31 31 32 33 33 33 33 34 33 32 33 34 35 35 34 34 34 33 32 34 34 33 34 35 35 35 35 33 35 35 35 34 33 33 32 32 32
Height
790 788 786 784 783 781 780 778 776 775 773 771 770 769 768 767 765 765 760 754 753 754 754 753 752 747 742 734 730 731 784 786 777 781 783 759 750 739 738 744 742 746 754 769 780
790 787 785 783 782 780 778 777 775 774 772 771 769 768 767 766 764 759 753 752 753 753 754 749 743 739 735 741 747 750 773 770 761 773 780 766 759 741 745 752 754 758 761 769 779
790 787 784 782 780 778 776 775 774 772 771 769 768 767 766 766 763 743 745 749 750 751 752 748 739 733 738 743 762 743 763 763 770 771 772 772 758 739 753 760 755 765 766 768 776
790 786 783 780 778 776 775 773 772 770 769 768 767 766 766 768 762 743 745 747 748 751 752 746 739 738 739 757 761 763 749 760 769 775 783 785 767 748 749 750 748 757 762 767 770
791 787 782 779 777 775 773 772 770 769 768 767 766 766 767 761 747 743 744 746 748 750 748 741 737 731 742 748 758 767 760 759 770 774 780 775 772 766 757 750 752 758 763 767 767
792 787 782 779 776 774 772 770 769 767 766 766 766 766 767 760 739 742 744 746 746 747 743 737 731 724 733 746 746 751 755 759 768 774 771 775 783 766 756 753 758 760 761 764 769
792 788 783 779 775 773 770 769 767 766 765 765 766 767 761 746 739 741 743 744 744 742 737 732 729 729 739 752 727 740 758 759 764 768 773 766 791 790 768 754 759 759 759 764 770
792 788 783 779 774 771 769 767 765 764 764 765 765 768 754 739 739 740 740 741 742 740 738 732 730 730 734 744 743 749 759 776 763 767 769 767 805 785 766 771 759 758 759 765 770
791 787 782 777 773 769 767 765 764 763 763 764 765 764 745 738 738 736 737 737 738 739 737 734 733 733 725 752 788 789 797 780 772 756 766 769 792 784 771 770 761 759 759 765 768
790 786 781 776 771 767 765 764 763 763 763 765 762 763 739 731 730 731 734 734 736 735 736 735 734 739 743 779 824 824 807 787 778 761 764 772 779 776 772 762 763 760 761 764 764
789 784 779 774 770 765 764 764 764 761 758 743 737 733 721 724 730 732 733 734 733 735 749 733 746 746 768 780 784 796 789 784 760 750 766 770 768 772 767 760 760 758 762 760 763
788 783 777 772 767 763 762 756 740 742 745 734 727 723 723 726 734 729 732 736 738 749 737 738 749 743 759 769 767 764 777 756 739 734 753 772 763 769 763 761 754 752 757 761 768
786 781 775 768 763 760 756 749 744 741 743 722 719 722 724 723 725 728 728 728 737 744 738 741 724 717 745 770 764 752 757 745 739 734 738 766 793 800 782 766 752 751 748 761 764
784 779 774 765 762 754 749 746 744 741 756 729 726 718 718 718 725 713 722 724 728 741 733 731 715 723 731 736 728 740 718 724 733 745 776 761 808 808 775 775 751 747 746 756 761
781 777 772 770 762 753 744 744 743 741 782 720 716 704 710 721 717 721 718 720 735 732 731 737 729 731 736 733 718 733 717 726 724 738 766 761 783 775 777 778 766 742 740 742 741
778 774 768 766 761 750 748 745 744 765 767 721 710 721 723 719 715 717 722 718 716 726 726 728 707 716 722 717 717 712 726 724 721 726 755 735 789 770 771 772 782 734 727 731 735
772 768 765 764 752 749 748 746 768 770 702 717 720 715 721 723 720 726 735 740 743 755 749 733 729 714 713 725 714 725 738 757 763 761 763 721 736 749 728 731 721 724 720 723 729
766 759 754 752 751 751 749 756 776 726 716 687 701 710 727 712 716 725 734 741 725 724 732 740 751 721 710 723 727 727 731 753 791 795 785 755 761 752 713 706 706 711 714 720 728
761 754 749 745 748 750 749 765 749 723 695 696 699 718 720 709 711 718 727 726 716 714 737 726 730 703 704 708 712 723 736 710 737 721 734 725 724 711 707 712 713 717 720 727 729
764 754 739 742 746 747 753 756 727 703 696 699 718 709 723 712 718 717 717 705 708 700 699 713 737 708 709 709 710 720 708 739 730 763 769 742 741 744 728 723 718 721 722 725 728
763 747 738 741 744 746 755 741 723 703 701 716 721 716 709 708 703 712 712 697 693 698 699 706 716 726 711 726 728 725 732 727 723 730 757 761 757 716 722 717 720 718 717 721 726
762 747 737 739 749 739 742 728 719 707 696 709 711 713 712 704 704 705 708 696 680 690 713 705 711 730 723 697 695 702 715 717 743 749 736 741 764 709 712 714 714 716 720 720 723
768 745 733 737 750 737 719 719 710 709 707 714 714 708 702 708 718 699 693 677 680 692 707 704 723 743 732 715 708 723 717 715 714 716 739 755 755 722 719 724 722 724 723 727 732
771 744 728 730 729 731 727 717 716 702 712 708 708 701 707 709 699 707 697 683 680 688 702 701 716 724 742 746 747 738 724 714 720 741 735 737 745 737 729 730 727 735 729 729 731
768 742 737 745 728 726 722 722 724 720 704 706 715 713 715 723 713 710 697 691 682 701 697 705 732 722 713 712 713 720 721 718 726 724 744 734 738 733 721 727 730 730 730 733 735
771 765 754 750 737 737 736 735 733 722 713 713 719 712 711 723 715 716 703 703 699 704 703 701 728 723 729 711 708 718 716 719 720 720 723 724 731 711 710 715 724 728 731 734 732
770 770 763 757 744 736 730 725 722 716 713 706 710 711 714 709 705 704 702 697 695 701 710 711 717 725 741 717 719 735 717 715 716 711 716 734 720 709 715 720 722 724 727 728 727
Wind_Speed
14 13 11 11 11 11 11 11 11 11 10 9 8 9 10 11 11 9 12 7 16 7 9 10 13 15 16 15 3 11 4 7 1 2 2 16 8 10 12 8 18 17 21 22 24
16 14 13 12 11 11 11 11 11 11 10 9 7 7 8 10 11 18 18 13 8 9 11 15 13 14 13 9 4 4 4 5 6 9 8 16 1 8 12 15 15 17 18 29 26
19 16 13 12 12 12 12 12 11 10 10 8 6 6 6 6 8 8 19 15 11 13 14 20 20 14 14 4 4 8 3 7 6 7 6 12 15 11 9 14 14 16 15 15 30
25 20 15 13 12 12 11 11 11 9 8 7 6 5 5 3 3 5 10 11 12 11 14 17 12 17 13 7 7 4 7 5 8 4 11 15 17 10 3 14 17 16 14 12 10
28 25 20 14 12 11 11 11 10 9 7 5 6 5 2 8 9 6 7 12 12 12 15 14 15 15 5 2 7 6 4 9 10 3 18 12 15 15 8 15 14 15 13 11 9
29 28 24 19 13 12 11 10 9 7 5 5 5 3 5 11 8 8 10 11 13 15 16 15 13 12 8 10 11 11 10 12 8 7 6 5 5 9 12 13 12 12 13 11 9
28 29 27 23 16 13 11 10 9 6 4 4 4 2 9 13 1 6 10 13 14 15 14 14 14 14 4 12 14 15 11 11 9 10 4 8 7 8 19 12 11 13 11 12 13
29 30 29 25 20 13 12 11 9 4 4 4 3 5 8 7 6 7 10 13 14 13 15 17 6 14 4 15 12 5 2 4 10 13 7 6 5 12 18 16 10 10 10 10 10
29 30 31 27 23 14 11 10 5 4 5 5 4 8 14 8 11 12 10 12 13 14 14 12 11 16 13 6 5 7 7 6 8 14 8 8 6 13 19 17 3 12 11 10 11
30 30 32 28 26 16 11 6 6 4 4 7 13 9 11 13 12 13 11 12 12 13 12 12 13 14 5 7 2 8 15 9 6 12 11 11 7 10 16 17 13 13 6 8 12
31 31 32 29 28 16 6 4 5 6 13 14 12 12 6 5 6 9 10 11 12 12 13 15 12 13 20 14 22 18 16 14 13 17 12 12 13 13 13 13 12 14 14 15 10
30 31 32 30 29 13 6 7 8 10 12 20 19 9 3 5 8 11 11 11 14 13 15 14 13 17 20 20 22 11 9 11 6 12 8 14 15 2 15 15 12 11 10 18 12
30 31 32 30 28 10 14 17 10 11 8 12 10 12 8 12 9 13 14 15 12 14 15 17 12 9 24 17 27 18 9 14 5 11 3 9 7 6 16 16 16 12 12 12 11
30 30 31 33 10 8 15 16 9 8 6 14 14 10 10 12 8 17 15 13 7 14 16 13 16 4 7 10 9 12 9 4 3 5 5 7 5 6 11 14 17 20 14 17 16
30 30 29 27 16 9 6 3 8 6 6 15 15 12 11 10 12 11 13 14 14 11 11 11 14 13 7 12 10 11 3 9 9 10 7 8 2 4 9 7 19 19 22 14 16
31 29 30 9 7 16 12 9 9 7 9 12 11 11 14 12 9 7 9 13 11 13 12 16 11 8 12 11 12 9 7 14 13 13 12 14 11 7 12 12 14 22 17 21 20
34 29 29 14 8 5 9 7 6 10 8 12 14 12 13 13 9 7 11 12 12 9 11 12 16 7 12 12 8 8 13 12 4 4 9 4 4 8 11 21 16 18 15 15 13
37 29 14 15 7 11 11 7 10 12 18 6 11 15 13 15 12 11 11 12 15 17 12 11 12 15 12 13 13 13 15 9 11 3 3 20 10 5 14 10 12 10 11 5 13
35 13 7 7 10 10 8 12 12 18 11 6 12 14 15 13 7 12 15 14 16 13 16 5 2 16 13 9 12 9 9 14 9 18 10 9 10 14 17 12 10 13 11 9 2
21 13 14 8 7 9 8 17 18 24 12 11 10 11 11 14 12 12 13 12 15 12 13 17 5 11 10 4 9 12 14 9 5 3 5 8 5 11 10 10 10 10 10 12 10
6 5 7 5 9 7 11 16 19 21 8 9 13 17 13 16 16 12 9 13 11 10 10 14 9 4 11 9 13 9 9 9 11 9 6 6 8 11 10 9 13 12 11 14 9
8 4 8 8 7 8 12 18 20 18 11 6 15 18 20 20 11 16 14 12 13 11 11 13 10 7 14 9 13 7 6 7 8 8 7 11 2 11 10 5 3 8 8 6 8
6 9 6 10 7 11 16 19 20 18 11 14 14 17 16 18 16 13 11 9 10 8 5 8 8 9 10 9 3 5 8 12 14 13 11 9 4 6 3 11 3 2 9 7 3
5 4 7 6 10 17 15 13 13 12 14 18 17 15 17 16 18 16 13 7 10 9 7 4 14 10 10 5 14 11 11 14 6 9 10 5 10 4 4 8 10 9 5 2 1
4 5 10 7 3 10 12 14 16 12 17 8 15 15 15 14 15 15 17 12 10 11 5 7 14 15 18 12 12 8 9 11 7 7 9 15 11 7 1 11 8 6 3 3 4
5 8 11 12 16 13 11 12 16 16 17 14 14 16 13 17 18 18 16 8 9 11 11 12 11 13 16 16 15 9 9 12 12 13 12 11 12 10 4 6 3 3 5 8 7
16 16 9 10 14 12 12 13 15 12 16 18 11 13 14 10 12 14 15 17 14 9 10 13 13 11 13 15 12 12 9 11 13 14 12 12 8 8 2 1 4 3 8 9 10
Wind_Direction
356 348 341 335 331 330 327 326 324 322 318 312 299 292 292 291 282 269 252 236 216 241 224 253 226 248 246 255 215 271 94 282 97 146 95 299 57 90 120 118 71 79 109 132 141
360 349 341 334 327 322 319 320 323 324 320 313 300 287 290 301 291 258 243 233 227 237 230 239 227 235 251 21 20 281 247 341 95 143 121 280 0 149 114 114 101 95 104 133 146
4 350 339 331 324 318 318 318 317 323 321 312 299 282 285 315 269 235 205 215 242 227 238 275 271 285 280 100 31 292 30 123 103 81 45 318 266 62 116 132 126 124 130 138 157
11 3 345 331 324 322 318 314 316 320 315 304 292 275 283 274 247 111 173 198 216 208 242 265 258 260 275 101 267 263 103 119 124 97 59 329 284 101 87 116 119 129 141 136 153
12 9 1 342 329 321 315 315 317 321 310 289 280 271 302 217 248 131 183 187 198 215 239 247 249 260 326 136 195 7 136 121 128 110 137 250 36 303 108 98 108 122 134 146 158
11 9 5 357 338 322 315 315 315 313 293 271 265 286 252 251 106 143 166 182 209 215 241 250 261 312 5 247 115 187 142 138 157 124 75 99 27 23 117 120 124 153 147 131 143
8 7 4 360 344 326 317 314 312 301 270 251 247 268 262 263 192 160 180 202 215 230 244 241 276 303 125 330 123 142 158 157 156 151 119 96 38 301 316 143 165 155 144 120 118
3 3 1 356 348 330 312 308 312 264 238 240 214 237 263 199 229 194 198 205 217 236 260 289 289 273 160 215 263 151 64 184 135 171 153 182 179 268 289 309 157 154 131 141 140
358 357 358 354 348 329 306 300 289 228 227 246 236 217 272 161 216 218 206 215 209 231 240 274 273 263 274 129 57 333 272 200 149 192 151 180 161 199 257 267 146 161 154 149 150
353 351 352 350 345 328 304 292 282 222 250 248 265 260 247 232 193 199 199 230 204 222 225 236 243 241 158 78 96 308 295 289 162 185 195 177 198 180 230 235 169 216 161 170 163
347 346 346 345 341 323 302 286 206 200 222 232 152 235 151 104 126 209 195 215 204 214 222 212 243 241 109 98 161 199 249 253 196 203 166 201 196 200 215 224 227 173 189 182 127
343 342 341 339 335 310 262 248 20 327 293 218 250 274 297 148 184 195 186 209 200 212 223 237 236 115 122 122 233 199 235 285 137 149 130 236 201 257 196 214 225 215 188 132 161
340 339 337 334 327 282 233 264 322 319 282 237 204 222 199 200 208 174 197 221 194 222 227 247 238 149 147 171 214 221 159 261 132 167 117 78 63 37 292 265 211 228 185 136 205
336 336 334 333 316 302 232 250 266 302 279 194 197 231 165 226 226 157 193 215 235 232 237 236 269 252 294 255 284 281 345 301 239 218 207 179 181 241 240 277 211 205 198 181 207
333 331 328 328 294 272 349 268 306 268 282 132 178 147 171 218 116 186 186 233 259 224 256 239 238 281 247 271 260 268 235 294 266 248 159 218 66 203 241 270 275 215 183 199 194
330 327 323 323 265 265 299 280 259 238 252 170 142 193 190 215 205 129 193 241 241 274 233 269 299 251 257 235 255 283 312 258 251 246 232 168 159 196 174 158 273 208 189 176 192
326 321 309 280 235 342 266 255 232 249 118 159 168 186 205 198 185 164 194 207 228 223 215 215 253 215 256 249 203 238 251 258 260 343 294 308 64 167 185 185 171 160 160 166 184
324 318 285 247 256 263 253 221 238 244 243 157 168 186 207 223 188 168 203 217 235 248 267 218 201 202 190 248 220 209 251 264 254 130 236 281 75 62 154 124 96 79 97 118 170
328 319 228 244 214 224 236 222 225 262 322 318 178 195 208 233 228 177 207 221 216 213 261 245 287 158 189 214 259 266 222 259 288 262 244 172 154 164 137 136 135 138 136 130 56
324 300 255 153 193 212 230 241 242 252 313 312 293 207 254 207 192 242 203 223 258 192 253 287 169 164 178 238 274 284 301 293 230 297 343 34 357 118 128 146 149 132 167 132 122
298 256 114 161 184 220 229 237 251 263 289 287 278 282 241 260 205 206 231 230 192 190 221 268 279 153 163 198 242 196 230 258 290 297 308 246 97 128 135 172 157 175 120 134 125
304 275 136 190 209 228 239 244 267 287 283 231 277 285 294 298 249 237 237 243 167 224 188 237 275 224 206 232 213 287 294 254 239 271 314 324 109 41 67 36 116 125 122 90 108
303 296 163 207 235 233 230 238 259 268 251 266 247 256 274 283 290 276 245 234 142 179 218 235 244 265 233 208 180 269 280 275 271 279 230 222 179 113 162 33 55 312 136 140 150
281 278 193 192 258 291 297 292 257 239 257 278 281 271 263 262 266 278 276 260 148 186 77 301 283 259 299 139 219 253 252 261 277 280 295 9 83 318 151 187 169 169 229 184 61
247 325 354 292 300 300 281 285 289 291 261 240 265 275 270 276 272 260 262 265 201 140 192 227 255 282 286 205 202 244 293 295 278 291 303 304 323 203 26 109 77 41 353 299 246
296 344 337 303 299 285 278 272 275 276 285 256 218 258 249 259 269 274 312 292 278 216 224 225 240 251 279 292 297 231 232 254 269 280 271 261 288 301 297 131 147 221 252 282 263
348 336 310 288 292 283 265 266 271 253 267 280 294 288 280 272 346 336 316 305 294 221 257 223 239 231 252 271 306 290 243 244 258 254 264 277 302 343 327 125 300 284 302 253 249